TIANTONG-1 2

Last updated on Wed Mar 11 2026 00:02:55 GMT+0000 (Coordinated Universal Time)

1 46916U 20082A 26069.52845020 -.00000354 00000+0 00000+0 0 9998 2 46916 0.9407 315.4179 0003435 37.9270 130.0189 1.00268675 19660
UTC large
Height (km)
Speed (km/s)
/
Latitude / Longitude
Inclination (degrees)
Orbital Period (minutes)
Azimuth
Elevation
Range (km)
Doppler Factor

Next 0 passes for location: London (51.5072 / 0.1276)

Sorry there are no passes over London.